Mankato, MN

4:29 PM CDT on April 23, 2018 (GMT -0500)
Mankato Regional

Weather History for KMKT - October, 2013

Change the Weather History Date:

Friday, October 18, 2013

  Actual Average Record
Temperature  
Mean Temperature 44 °F -  
Max Temperature 50 °F 55 °F 80 °F (2005)
Min Temperature 37 °F 37 °F 30 °F (2008)
Degree Days  
Heating Degree Days 22    
Moisture  
Dew Point 31 °F    
Average Humidity 63    
Maximum Humidity 87    
Minimum Humidity 40    
Precipitation  
Precipitation 0.00 in - - ()
Sea Level Pressure  
Sea Level Pressure 29.94 in    
Wind  
Wind Speed 11 mph (WNW)    
Max Wind Speed 17 mph    
Max Gust Speed 23 mph    
Visibility 10 miles    
Events      
Averages and records for this station are not official NWS values.
T = Trace of Precipitation, MM = Missing Value Source: NWS Daily Summary

Daily Weather History Graph

Daily Weather History Graph

Search for Another Location

Airport or City:

Astronomy

Oct. 18, 2013 Rise Set
Actual Time 7:34 AM CDT 6:26 PM CDT
Civil Twilight 7:05 AM CDT 6:55 PM CDT
Nautical Twilight 6:31 AM CDT 7:29 PM CDT
Astronomical Twilight 5:58 AM CDT 8:02 PM CDT
Moon 6:15 PM CDT (10/18) 7:10 AM CDT (10/18)
Length of Visible Light 11h 50m
Length of Day
10h 51m
Full, 100% of the Moon is Illuminated
Oct 18
Full
Oct 18
Full
Oct 26
Last Quarter
Nov 3
New
Nov 9
First Quarter

Hourly Weather History & Observations

Time (CDT) Temp. Windchill Dew Point Humidity Pressure Visibility Wind Dir Wind Speed Gust Speed Precip Events Conditions
12:15 AM 41.0 °F 32.8 °F 35.6 °F 81% 29.90 in 10.0 mi NW 16.1 mph 21.9 mph N/A   Overcast
12:35 AM 41.0 °F 33.1 °F 35.6 °F 81% 29.90 in 7.0 mi NW 15.0 mph 20.7 mph N/A   Overcast
12:55 AM 41.0 °F 33.5 °F 35.6 °F 81% 29.90 in 9.0 mi NW 13.8 mph 18.4 mph N/A   Overcast
1:15 AM 41.0 °F 33.9 °F 35.6 °F 81% 29.90 in 10.0 mi NW 12.7 mph - N/A   Overcast
1:35 AM 41.0 °F 33.9 °F 35.6 °F 81% 29.91 in 10.0 mi NW 12.7 mph - N/A   Overcast
1:55 AM 41.0 °F 33.5 °F 35.6 °F 81% 29.91 in 10.0 mi NW 13.8 mph - N/A   Overcast
2:15 AM 41.0 °F 33.9 °F 35.6 °F 81% 29.91 in 10.0 mi NW 12.7 mph - N/A   Overcast
2:35 AM 41.0 °F 34.3 °F 35.6 °F 81% 29.91 in 10.0 mi NW 11.5 mph 16.1 mph N/A   Overcast
2:55 AM 41.0 °F 35.2 °F 35.6 °F 81% 29.92 in 10.0 mi NW 9.2 mph - N/A   Overcast
3:15 AM 41.0 °F 32.5 °F 35.6 °F 81% 29.91 in 10.0 mi WNW 17.3 mph - N/A   Overcast
3:35 AM 41.0 °F 33.9 °F 35.6 °F 81% 29.92 in 4.0 mi NNW 12.7 mph 18.4 mph N/A   Overcast
3:55 AM 41.0 °F 34.7 °F 35.6 °F 81% 29.92 in 8.0 mi NW 10.4 mph - N/A   Overcast
4:15 AM 41.0 °F 34.7 °F 35.6 °F 81% 29.92 in 10.0 mi NW 10.4 mph - N/A   Overcast
4:35 AM 41.0 °F 35.2 °F 35.6 °F 81% 29.92 in 10.0 mi NW 9.2 mph - N/A   Overcast
4:55 AM 39.2 °F 33.6 °F 35.6 °F 87% 29.93 in 10.0 mi NW 8.1 mph - N/A   Mostly Cloudy
5:15 AM 39.2 °F 33.0 °F 35.6 °F 87% 29.93 in 10.0 mi NW 9.2 mph - N/A   Overcast
5:35 AM 39.2 °F 32.0 °F 35.6 °F 87% 29.94 in 10.0 mi NW 11.5 mph - N/A   Overcast
5:55 AM 39.2 °F 31.6 °F 35.6 °F 87% 29.95 in 10.0 mi WNW 12.7 mph - N/A   Overcast
6:15 AM 39.2 °F 31.6 °F 35.6 °F 87% 29.96 in 10.0 mi WNW 12.7 mph - N/A   Overcast
6:35 AM 39.2 °F 32.5 °F 33.8 °F 81% 29.97 in 10.0 mi WNW 10.4 mph - N/A   Overcast
6:55 AM 39.2 °F 32.5 °F 33.8 °F 81% 29.97 in 10.0 mi NW 10.4 mph - N/A   Overcast
7:15 AM 39.2 °F 33.6 °F 32.0 °F 75% 29.98 in 10.0 mi WNW 8.1 mph - N/A   Overcast
7:35 AM 39.2 °F 33.6 °F 32.0 °F 75% 29.98 in 10.0 mi NW 8.1 mph - N/A   Overcast
7:55 AM 37.4 °F 30.8 °F 32.0 °F 81% 29.99 in 10.0 mi WNW 9.2 mph - N/A   Overcast
8:15 AM 37.4 °F 30.8 °F 32.0 °F 81% 29.99 in 10.0 mi WNW 9.2 mph - N/A   Overcast
8:35 AM 37.4 °F 29.8 °F 30.2 °F 75% 30.00 in 10.0 mi WNW 11.5 mph - N/A   Overcast
8:55 AM 37.4 °F 30.8 °F 30.2 °F 75% 30.00 in 10.0 mi NW 9.2 mph - N/A   Scattered Clouds
9:15 AM 37.4 °F 30.8 °F 30.2 °F 75% 30.00 in 10.0 mi WNW 9.2 mph - N/A   Clear
9:35 AM 37.4 °F 32.1 °F 30.2 °F 75% 30.01 in 10.0 mi NW 6.9 mph - N/A   Clear
9:55 AM 39.2 °F 32.5 °F 30.2 °F 70% 30.01 in 10.0 mi NW 10.4 mph - N/A   Clear
10:15 AM 41.0 °F 35.2 °F 30.2 °F 65% 30.01 in 10.0 mi WNW 9.2 mph - N/A   Clear
10:35 AM 42.8 °F 37.0 °F 30.2 °F 61% 30.01 in 10.0 mi NW 10.4 mph - N/A   Clear
10:55 AM 44.6 °F 39.7 °F 30.2 °F 57% 30.01 in 10.0 mi NNW 9.2 mph - N/A   Clear
11:15 AM 44.6 °F 38.8 °F 30.2 °F 57% 30.01 in 10.0 mi NW 11.5 mph - N/A   Clear
11:35 AM 46.4 °F 41.5 °F 32.0 °F 57% 30.01 in 10.0 mi WNW 10.4 mph - N/A   Clear
11:55 AM 46.4 °F 40.7 °F 28.4 °F 50% 30.01 in 10.0 mi NW 12.7 mph 18.4 mph N/A   Clear
12:15 PM 46.4 °F 41.5 °F 30.2 °F 53% 30.01 in 10.0 mi West 10.4 mph - N/A   Scattered Clouds
12:35 PM 48.2 °F - 30.2 °F 50% 30.00 in 10.0 mi WNW 12.7 mph 20.7 mph N/A   Scattered Clouds
12:55 PM 48.2 °F - 26.6 °F 43% 29.99 in 10.0 mi NNW 11.5 mph 21.9 mph N/A   Partly Cloudy
1:15 PM 48.2 °F - 28.4 °F 46% 29.97 in 10.0 mi NNW 9.2 mph - N/A   Mostly Cloudy
1:35 PM 48.2 °F - 26.6 °F 43% 29.97 in 10.0 mi WNW 10.4 mph - N/A   Scattered Clouds
1:55 PM 48.2 °F - 26.6 °F 43% 29.95 in 10.0 mi NW 9.2 mph 23.0 mph N/A   Partly Cloudy
2:15 PM 50.0 °F - 26.6 °F 40% 29.95 in 10.0 mi NNW 10.4 mph 20.7 mph N/A   Scattered Clouds
2:35 PM 50.0 °F - 26.6 °F 40% 29.96 in 10.0 mi West 9.2 mph - N/A   Mostly Cloudy
2:55 PM 48.2 °F - 26.6 °F 43% 29.96 in 10.0 mi NW 9.2 mph - N/A   Mostly Cloudy
3:15 PM 50.0 °F - 28.4 °F 43% 29.96 in 10.0 mi NW 9.2 mph - N/A   Partly Cloudy
3:35 PM 48.2 °F - 26.6 °F 43% 29.95 in 10.0 mi WNW 9.2 mph - N/A   Clear
3:55 PM 48.2 °F - 26.6 °F 43% 29.94 in 10.0 mi NW 8.1 mph - N/A   Clear
4:15 PM 50.0 °F - 26.6 °F 40% 29.93 in 10.0 mi NW 12.7 mph - N/A   Mostly Cloudy
4:35 PM 48.2 °F - 24.8 °F 40% 29.93 in 10.0 mi WNW 6.9 mph - N/A   Partly Cloudy
4:55 PM 50.0 °F - 26.6 °F 40% 29.93 in 10.0 mi NW 5.8 mph - N/A   Scattered Clouds
5:15 PM 48.2 °F - 26.6 °F 43% 29.93 in 10.0 mi WNW 6.9 mph - N/A   Mostly Cloudy
5:35 PM 50.0 °F - 26.6 °F 40% 29.93 in 10.0 mi WNW 8.1 mph - N/A   Overcast
5:55 PM 48.2 °F - 26.6 °F 43% 29.93 in 10.0 mi WNW 4.6 mph - N/A   Overcast
6:15 PM 48.2 °F - 28.4 °F 46% 29.92 in 10.0 mi West 8.1 mph - N/A   Overcast
6:35 PM 48.2 °F - 26.6 °F 43% 29.92 in 10.0 mi West 4.6 mph - N/A   Mostly Cloudy
6:55 PM 46.4 °F 44.3 °F 26.6 °F 46% 29.92 in 10.0 mi SW 4.6 mph - N/A   Scattered Clouds
7:15 PM 46.4 °F 44.3 °F 26.6 °F 46% 29.92 in 10.0 mi SSW 4.6 mph - N/A   Scattered Clouds
7:35 PM 44.6 °F 41.4 °F 26.6 °F 49% 29.92 in 10.0 mi SSW 5.8 mph - N/A   Clear
7:55 PM 44.6 °F 41.4 °F 26.6 °F 49% 29.92 in 10.0 mi SSW 5.8 mph - N/A   Clear
8:15 PM 44.6 °F 41.4 °F 26.6 °F 49% 29.91 in 10.0 mi SSW 5.8 mph - N/A   Scattered Clouds
8:35 PM 44.6 °F 40.7 °F 26.6 °F 49% 29.91 in 10.0 mi SSW 6.9 mph - N/A   Partly Cloudy
8:55 PM 42.8 °F 38.6 °F 26.6 °F 53% 29.90 in 10.0 mi SSW 6.9 mph - N/A   Clear
9:15 PM 42.8 °F 38.0 °F 26.6 °F 53% 29.90 in 10.0 mi SSW 8.1 mph - N/A   Partly Cloudy
9:35 PM 42.8 °F 35.4 °F 28.4 °F 57% 29.90 in 10.0 mi West 15.0 mph - N/A   Mostly Cloudy
9:55 PM 42.8 °F 35.8 °F 30.2 °F 61% 29.90 in 10.0 mi West 13.8 mph - N/A   Overcast
10:15 PM 42.8 °F 37.0 °F 30.2 °F 61% 29.90 in 10.0 mi West 10.4 mph - N/A   Mostly Cloudy
10:35 PM 42.8 °F 38.6 °F 30.2 °F 61% 29.90 in 10.0 mi West 6.9 mph - N/A   Mostly Cloudy
10:55 PM 42.8 °F 38.0 °F 30.2 °F 61% 29.89 in 10.0 mi WNW 8.1 mph - N/A   Mostly Cloudy
11:15 PM 42.8 °F 38.0 °F 32.0 °F 66% 29.88 in 10.0 mi West 8.1 mph - N/A   Overcast
11:35 PM 42.8 °F 38.0 °F 32.0 °F 66% 29.88 in 10.0 mi West 8.1 mph - N/A   Overcast
11:55 PM 39.2 °F 33.6 °F 30.2 °F 70% 29.87 in 10.0 mi West 8.1 mph - N/A   Mostly Cloudy